[Iaude] MPEC V171: 2023 VO5 [a=1.92,e=0.52,i=14.4,H=21.4,PHA]
    mpec at marsden.cfa.harvard.edu 
    mpec at marsden.cfa.harvard.edu
       
    Fri Nov 10 08:58:57 EST 2023
    
    
  
M.P.E.C. 2023-V171                            Issued 2023 November 10, 13:57 UT
     The Minor Planet Electronic Circulars contain information on unusual
         minor planets, routine data on comets and natural satellites,
         and occasional editorial announcements.  They are published
    on behalf of Division F of the International Astronomical Union by the
          Minor Planet Center, Smithsonian Astrophysical Observatory,
                          Cambridge, MA 02138, U.S.A.
			  
             Prepared using the Tamkin Foundation Computer Network
                              MPC at CFA.HARVARD.EDU
            URL https://www.minorplanetcenter.net/    ISSN 1523-6714
                                    2023 VO5                                    
Observations:
     K23V05O* C2023 11 08.43649906 19 31.127+47 34 56.86         21.59GVEV171V00
     K23V05O  C2023 11 08.44201906 19 31.807+47 35 07.40         22.19GVEV171V00
     K23V05O  C2023 11 08.44751706 19 32.502+47 35 17.84         22.88GVEV171V00
     K23V05O  C2023 11 08.45301906 19 33.179+47 35 28.54         21.97GVEV171V00
     K23V05O KC2023 11 08.51312306 19 40.847+47 37 23.70         21.73GVEV171V06
     K23V05O KC2023 11 08.51709806 19 41.336+47 37 31.33         23.29GVEV171V06
     K23V05O KC2023 11 08.52107306 19 41.869+47 37 39.72         22.12GVEV171V06
     K23V05O KC2023 11 08.52504906 19 42.380+47 37 46.85         23.00GVEV171V06
     K23V05O KC2023 11 09.29512 06 21 28.22 +48 02 47.5          22.0 RVEV171291
     K23V05O KC2023 11 09.31432 06 21 30.71 +48 03 26.0          22.9 RVEV171291
     K23V05O KC2023 11 10.49939 06 24 12.93 +48 42 49.6                VEV171291
     K23V05O KC2023 11 10.51844 06 24 15.47 +48 43 27.5                VEV171291
     K23V05O KC2023 11 10.52607 06 24 16.50 +48 43 43.4                VEV171291
Observer details:
291 LPL/Spacewatch II.  Observer T. H. Bressi.  1.8-m f/2.7 reflector + CCD.
V00 Kitt Peak-Bok.  Observer K. W. Wierzchos.  Measurers M. J. Brucker, C. E.
    Woodward, D. Fay, J. B. Fazekas, D. C. Fuls, A. R. Gibbs, H. Groeller, J.
    K. Hogan, R. A. Kowalski, S. M. Larson, C. Lejoly, G. J. Leonard, R. A.
    Mastaler, R. S. McMillan, D. Rankin, R. L. Seaman, A. Serrano, F. C.
    Shelly, K. W. Wierzchos.  2.25-m reflector + 4x4K mosaic CCD.
V06 Catalina Sky Survey-Kuiper.  Observer H. Groeller.  Measurers E. C.
    Beshore, D. Fay, J. B. Fazekas, D. C. Fuls, A. R. Gibbs, A. D. Grauer, H.
    Groeller, J. K. Hogan, R. A. Kowalski, S. M. Larson, G. J. Leonard, D.
    Rankin, R. L. Seaman, F. C. Shelly, K. W. Wierzchos.  1.55-m reflector +
    1K CCD.
Orbital elements:
2023 VO5                                            PHA, Earth MOID = 0.0052 AU
Epoch 2023 Sept. 13.0 TT = JDT 2460200.5                MPC                     
M 302.37248              (2000.0)            P               Q                  
n   0.37142964     Peri.  140.95997     -0.92799534     -0.36445434             
a   1.9166891      Node    18.13312     +0.24778449     -0.75889458             
e   0.5202251      Incl.   14.40874     +0.27825796     -0.53967773             
P   2.65           H   21.44          G   0.15           U   9                  
Residuals in seconds of arc
231108 V00  0.2+  0.1+    231108 V06  0.2-  0.2-    231110 291  0.2+  0.3-
231108 V00  0.0   0.0     231108 V06  0.0   0.6+    231110 291  0.4+  0.4-
231108 V00  0.0   0.2-    231108 V06  0.1+  0.1+    231110 291  0.6+  0.3+
231108 V00  0.2-  0.1-    231109 291  0.1+  0.1-
231108 V06  0.0   0.2-    231109 291  0.2-  0.2-
Ephemeris:
2023 VO5                 a,e,i = 1.92, 0.52, 14                  q = 0.9196
Date    TT    R. A. (2000) Decl.     Delta      r    Elong.  Phase     V
2023 10 11    05 24 36.8 +36 01 01   1.0052  1.6784   113.8    33.0    24.0
...
2023 10 26    05 52 00.4 +41 17 46   0.7986  1.5690   121.7    32.6    23.3
...
2023 11 03    06 07 50.6 +44 49 24   0.6997  1.5094   125.4    32.4    22.9
...
2023 11 09    06 20 47.0 +47 53 07   0.6314  1.4643   127.6    32.4    22.6
2023 11 10    06 23 03.9 +48 26 03   0.6205  1.4568   128.0    32.4    22.6
2023 11 11    06 25 23.4 +48 59 40   0.6098  1.4492   128.3    32.5    22.5
...
2023 11 17    06 40 29.5 +52 36 25   0.5489  1.4039   129.6    32.9    22.3
...
2023 11 25    07 05 30.7 +58 06 19   0.4769  1.3434   129.8    34.4    21.9
...
2023 12 10    08 33 50.3 +69 50 42   0.3714  1.2316   124.0    41.5    21.4
A. U. Tomatic                (C) Copyright 2023 MPC           M.P.E.C. 2023-V171
    
    
More information about the Iaude
mailing list